Dyersburg, TN

9:31 PM CDT on June 28, 2017 (GMT -0500)
Dyersburg Municipal

Weather History for KDYR - March, 2013

Change the Weather History Date:

Saturday, March 16, 2013

  Actual Average Record
Temperature  
Mean Temperature 63 °F -  
Max Temperature 75 °F 55 °F 75 °F (2013)
Min Temperature 51 °F 39 °F 28 °F (1997)
Degree Days  
Heating Degree Days 2    
Growing Degree Days 13 (Base 50)    
Moisture  
Dew Point 44 °F    
Average Humidity 48    
Maximum Humidity 58    
Minimum Humidity 40    
Precipitation  
Precipitation 0.00 in - - ()
Sea Level Pressure  
Sea Level Pressure 29.87 in    
Wind  
Wind Speed 16 mph (WSW)    
Max Wind Speed 25 mph    
Max Gust Speed 37 mph    
Visibility 10 miles    
Events      
Averages and records for this station are not official NWS values.
T = Trace of Precipitation, MM = Missing Value Source: NWS Daily Summary

Daily Weather History Graph

Daily Weather History Graph

Search for Another Location

Airport or City:

Trip Planner

Search our weather history database for the weather conditions in past years. The results will help you decide how hot, cold, wet, or windy it might be!

Date:

Astronomy

Mar. 16, 2013 Rise Set
Actual Time 7:06 AM CDT 7:06 PM CDT
Civil Twilight 6:41 AM CDT 7:31 PM CDT
Nautical Twilight 6:11 AM CDT 8:01 PM CDT
Astronomical Twilight 5:41 AM CDT 8:31 PM CDT
Moon 9:45 AM CDT (3/16) No Moon Set
Length of Visible Light 12h 50m
Length of Day
11h 59m
Waxing Crescent, 23% of the Moon is Illuminated
Mar 16
Waxing Crescent
Mar 19
First Quarter
Mar 27
Full
Apr 2
Last Quarter
Apr 10
New

Hourly Weather History & Observations

Time (CDT) Temp. Dew Point Humidity Pressure Visibility Wind Dir Wind Speed Gust Speed Precip Events Conditions
12:55 AM 66.2 °F 42.8 °F 43% 29.85 in 10.0 mi SW 16.1 mph 24.2 mph N/A   Clear
1:15 AM 68.0 °F 42.8 °F 40% 29.84 in 10.0 mi SW 19.6 mph 29.9 mph N/A   Clear
1:35 AM 66.2 °F 42.8 °F 43% 29.84 in 10.0 mi SW 18.4 mph 26.5 mph N/A   Clear
1:55 AM 66.2 °F 41.0 °F 40% 29.84 in 10.0 mi SW 15.0 mph 24.2 mph N/A   Clear
2:15 AM 66.2 °F 41.0 °F 40% 29.84 in 10.0 mi SSW 15.0 mph 23.0 mph N/A   Clear
2:35 AM 66.2 °F 41.0 °F 40% 29.83 in 10.0 mi SW 17.3 mph 29.9 mph N/A   Clear
2:55 AM 66.2 °F 41.0 °F 40% 29.83 in 10.0 mi SW 19.6 mph 28.8 mph N/A   Clear
3:15 AM 66.2 °F 41.0 °F 40% 29.83 in 10.0 mi SW 17.3 mph 29.9 mph N/A   Clear
3:35 AM 66.2 °F 41.0 °F 40% 29.83 in 10.0 mi WSW 19.6 mph 36.8 mph N/A   Clear
3:55 AM 64.4 °F 41.0 °F 42% 29.83 in 10.0 mi SW 21.9 mph 28.8 mph N/A   Clear
4:15 AM 64.4 °F 41.0 °F 42% 29.83 in 10.0 mi SW 17.3 mph 24.2 mph N/A   Clear
4:35 AM 64.4 °F 41.0 °F 42% 29.83 in 10.0 mi SW 13.8 mph 25.3 mph N/A   Clear
4:55 AM 62.6 °F 41.0 °F 45% 29.82 in 10.0 mi SW 16.1 mph 19.6 mph N/A   Clear
5:15 AM 62.6 °F 41.0 °F 45% 29.83 in 10.0 mi SW 11.5 mph 18.4 mph N/A   Clear
5:35 AM 62.6 °F 42.8 °F 48% 29.83 in 10.0 mi SW 12.7 mph 23.0 mph N/A   Clear
5:55 AM 60.8 °F 42.8 °F 52% 29.84 in 10.0 mi SW 13.8 mph 20.7 mph N/A   Clear
6:15 AM 60.8 °F 42.8 °F 52% 29.84 in 10.0 mi SW 11.5 mph 17.3 mph N/A   Clear
6:35 AM 60.8 °F 42.8 °F 52% 29.85 in 10.0 mi SSW 9.2 mph 17.3 mph N/A   Clear
6:55 AM 60.8 °F 42.8 °F 52% 29.85 in 10.0 mi SW 11.5 mph 20.7 mph N/A   Clear
7:15 AM 60.8 °F 44.6 °F 55% 29.86 in 10.0 mi SW 15.0 mph 23.0 mph N/A   Clear
7:35 AM 60.8 °F 44.6 °F 55% 29.86 in 10.0 mi SW 18.4 mph 25.3 mph N/A   Clear
7:55 AM 60.8 °F 44.6 °F 55% 29.87 in 10.0 mi SW 18.4 mph 24.2 mph N/A   Clear
8:15 AM 62.6 °F 44.6 °F 52% 29.87 in 10.0 mi SW 17.3 mph 31.1 mph N/A   Clear
8:35 AM 62.6 °F 44.6 °F 52% 29.87 in 10.0 mi SW 15.0 mph 28.8 mph N/A   Clear
8:55 AM 64.4 °F 46.4 °F 52% 29.88 in 10.0 mi SW 23.0 mph 31.1 mph N/A   Clear
9:15 AM 64.4 °F 46.4 °F 52% 29.88 in 10.0 mi SW 16.1 mph 26.5 mph N/A   Clear
9:35 AM 64.4 °F 46.4 °F 52% 29.88 in 10.0 mi WSW 18.4 mph 29.9 mph N/A   Clear
9:55 AM 64.4 °F 46.4 °F 52% 29.88 in 10.0 mi SW 25.3 mph 31.1 mph N/A   Clear
10:15 AM 66.2 °F 46.4 °F 49% 29.88 in 10.0 mi SW 20.7 mph 32.2 mph N/A   Clear
10:35 AM 66.2 °F 46.4 °F 49% 29.88 in 10.0 mi WSW 18.4 mph 31.1 mph N/A   Clear
10:55 AM 66.2 °F 46.4 °F 49% 29.89 in 10.0 mi SW 20.7 mph 31.1 mph N/A   Clear
11:15 AM 68.0 °F 48.2 °F 49% 29.89 in 10.0 mi WSW 20.7 mph 31.1 mph N/A   Clear
11:35 AM 68.0 °F 48.2 °F 49% 29.89 in 10.0 mi WSW 18.4 mph 31.1 mph N/A   Clear
11:55 AM 69.8 °F 48.2 °F 46% 29.88 in 10.0 mi SW 18.4 mph 25.3 mph N/A   Clear
12:15 PM 71.6 °F 48.2 °F 43% 29.88 in 10.0 mi WSW 19.6 mph 25.3 mph N/A   Clear
12:35 PM 71.6 °F 48.2 °F 43% 29.89 in 10.0 mi SW 17.3 mph 24.2 mph N/A   Clear
12:55 PM 71.6 °F 48.2 °F 43% 29.89 in 10.0 mi WSW 16.1 mph 27.6 mph N/A   Clear
1:15 PM 71.6 °F 48.2 °F 43% 29.88 in 10.0 mi WSW 16.1 mph 21.9 mph N/A   Clear
1:35 PM 73.4 °F 50.0 °F 44% 29.88 in 10.0 mi WSW 12.7 mph 19.6 mph N/A   Clear
1:55 PM 73.4 °F 48.2 °F 41% 29.87 in 10.0 mi SW 13.8 mph 20.7 mph N/A   Clear
2:15 PM 73.4 °F 50.0 °F 44% 29.86 in 10.0 mi WSW 16.1 mph 20.7 mph N/A   Clear
2:35 PM 73.4 °F 50.0 °F 44% 29.86 in 10.0 mi WSW 15.0 mph 19.6 mph N/A   Clear
2:55 PM 73.4 °F 50.0 °F 44% 29.85 in 10.0 mi WSW 16.1 mph 24.2 mph N/A   Clear
3:15 PM 73.4 °F 50.0 °F 44% 29.85 in 10.0 mi WSW 12.7 mph 21.9 mph N/A   Clear
3:35 PM 75.2 °F 51.8 °F 44% 29.85 in 10.0 mi WSW 13.8 mph 19.6 mph N/A   Scattered Clouds
3:55 PM 73.4 °F 50.0 °F 44% 29.85 in 10.0 mi WSW 13.8 mph - N/A   Partly Cloudy
4:15 PM 73.4 °F 50.0 °F 44% 29.85 in 10.0 mi SW 8.1 mph - N/A   Clear
4:35 PM 73.4 °F 50.0 °F 44% 29.84 in 10.0 mi WSW 11.5 mph - N/A   Mostly Cloudy
4:55 PM 73.4 °F 48.2 °F 41% 29.84 in 10.0 mi WSW 11.5 mph - N/A   Mostly Cloudy
5:15 PM 71.6 °F 48.2 °F 43% 29.84 in 10.0 mi West 3.5 mph - N/A   Overcast
5:35 PM 71.6 °F 48.2 °F 43% 29.84 in 10.0 mi Calm Calm - N/A   Overcast
5:55 PM 71.6 °F 48.2 °F 43% 29.84 in 10.0 mi NNE 10.4 mph - N/A   Mostly Cloudy
6:15 PM 66.2 °F 46.4 °F 49% 29.85 in 10.0 mi NNE 12.7 mph - N/A   Overcast
6:35 PM 62.6 °F 44.6 °F 52% 29.86 in 10.0 mi NNE 16.1 mph - N/A   Mostly Cloudy
6:55 PM 62.6 °F 44.6 °F 52% 29.87 in 10.0 mi NNE 15.0 mph 21.9 mph N/A   Scattered Clouds
7:15 PM 60.8 °F 42.8 °F 52% 29.88 in 10.0 mi NNE 13.8 mph - N/A   Mostly Cloudy
7:35 PM 59.0 °F 42.8 °F 55% 29.89 in 10.0 mi NNE 15.0 mph - N/A   Overcast
7:55 PM 57.2 °F 41.0 °F 55% 29.89 in 10.0 mi NE 17.3 mph - N/A   Mostly Cloudy
8:15 PM 55.4 °F 39.2 °F 54% 29.91 in 9.0 mi NE 15.0 mph 19.6 mph N/A   Scattered Clouds
8:35 PM 55.4 °F 37.4 °F 51% 29.92 in 8.0 mi NE 13.8 mph 23.0 mph N/A   Scattered Clouds
8:55 PM 53.6 °F 37.4 °F 54% 29.92 in 9.0 mi NE 15.0 mph 20.7 mph N/A   Overcast
9:15 PM 53.6 °F 37.4 °F 54% 29.93 in 9.0 mi NE 10.4 mph - N/A   Overcast
9:35 PM 53.6 °F 37.4 °F 54% 29.93 in 8.0 mi NE 12.7 mph - N/A   Overcast
9:55 PM 53.6 °F 37.4 °F 54% 29.94 in 8.0 mi NNE 11.5 mph 18.4 mph N/A   Overcast
10:15 PM 53.6 °F 37.4 °F 54% 29.94 in 7.0 mi NE 11.5 mph - N/A   Overcast
10:35 PM 53.6 °F 37.4 °F 54% 29.94 in 7.0 mi NE 10.4 mph - N/A   Overcast
10:55 PM 53.6 °F 37.4 °F 54% 29.94 in 7.0 mi NE 12.7 mph - N/A   Overcast
11:15 PM 53.6 °F 37.4 °F 54% 29.94 in 8.0 mi NE 13.8 mph 17.3 mph N/A   Overcast
11:35 PM 51.8 °F 37.4 °F 58% 29.93 in 10.0 mi ENE 13.8 mph - N/A   Overcast
11:55 PM 51.8 °F 37.4 °F 58% 29.93 in 10.0 mi ENE 12.7 mph - N/A   Overcast